Skip Page Navigation
NASA JPL Caltech
NASA Logo - Jet Propulsion Laboratory + View the NASA Portal
+ Center for Near-Earth Object Studies
JPL Home Earth Solar System Stars & Galaxies Technology
JPL Solar System Dynamics
BODIES ORBITS EPHEMERIDES TOOLS PHYSICAL DATA DISCOVERY FAQ SITE MAP
IMPORTANT: The SSD Announcement email list is now available. Major changes are coming in the near future, including possible hostname and/or URL changes. To be notified of such changes, subscribe to this email list.

Please visit this page for more details.


JPL Small-Body Database Browser
Search: [ help ]  
461060 (2014 YF11)
Classification: Main-belt Asteroid          SPK-ID: 2461060
Ephemeris | Orbit Diagram | Orbital Elements | Mission Design | Physical Parameters | Discovery Circumstances | Close-Approach Data ]

[ show orbit diagram ]
Orbital Elements at Epoch 2458600.5 (2019-Apr-27.0) TDB
Reference: JPL 12 (heliocentric ecliptic J2000)
 Element Value Uncertainty (1-sigma)   Units 
e .136068196504162 8.0028e-08  
a 3.061141926768266 9.1292e-08 au
q 2.644617865549633 2.7419e-07 au
i 9.922224469769281 1.0525e-05 deg
node 272.3498607319411 4.7774e-05 deg
peri 69.09736116182228 6.2467e-05 deg
M 16.26237536320479 4.4779e-05 deg
tp 2458512.129948978864
(2019-Jan-28.62994898)
0.00024264 TDB
period 1956.246714092546
5.36
8.7511e-05
2.396e-07
d
yr
n .1840258682131487 8.2323e-09 deg/d
Q 3.477665987986899 1.0371e-07 au
  Orbit Determination Parameters
   # obs. used (total)      71  
   data-arc span      3570 days (9.77 yr)  
   first obs. used      2008-09-30  
   last obs. used      2018-07-10  
   planetary ephem.      DE431  
   SB-pert. ephem.      SB431-N16  
   condition code      0  
   norm. resid. RMS      .59012  
   source      ORB  
   producer      Otto Matic  
   solution date      2019-Jul-14 16:18:01  

Additional Information
 Earth MOID = 1.65518 au 
 Jupiter MOID = 1.95064 au 
 T_jup = 3.197 
[ show covariance matrix ]

Ephemeris | Orbit Diagram | Orbital Elements | Mission Design | Physical Parameters | Discovery Circumstances | Close-Approach Data ]

Physical Parameter Table
Parameter Symbol Value Units Sigma Reference Notes
absolute magnitude H 16.1   n/a MPO456230  

461060 (2014 YF11)          Discovered 2008-Sep-30 by CSS at Catalina
Reference: Last Updated: 2016-02-25

[ hide close-approach data ]
Close-Approach Data   ...sorted by Date/Time (TDB)
Date/Time (TDB) Time Uncertainty
(days_HH:MM)
Body Nominal Distance (au) Minimum Distance (au) Maximum Distance (au) V-relative (km/s) V-infinity (km/s) JD (TDB) Time Uncertainty (minutes) Semi-major axis (km) Semi-minor axis (km) range-LOV angle (deg) N-sigma BP Orbit Ref. Reference Modified
1919-Feb-20 20:03 00:12 Jupiter 1.93580903253652 1.93580777674975 1.93581028839657 3.96279909406198 3.85080083602938 2422010.335293572 12.3766260395974 892.945716074524 40.9700780875908 -88.5992159251556 1220052.10848834 T 12 CATAB v2.0e-lin.ifort 2019-Jul-14 16:18:03 2019-Jul-14 16:18
2026-May-01 23:09 00:02 Jupiter 1.94537763089141 1.9453766717726 1.94537859001044 3.67056672765329 3.54996547360251 2461162.464821522 1.54732276932107 241.310650635974 39.1519185300816 -86.6363246090774 1366039.03469333 T 12 CATAB v2.0e-lin.ifort 2019-Jul-14 16:18:03 2019-Jul-14 16:18
2084-Oct-13 02:54 00:09 Jupiter 1.98942277861535 1.98942047669813 1.9894250806106 4.30510132086195 4.20504119814221 2482511.620625966 8.98922894997798 693.155026862676 39.2912429771606 -82.267546642958 1406867.30330568 T 12 CATAB v2.0e-lin.ifort 2019-Jul-14 16:18:03 2019-Jul-14 16:18
2133-Jul-16 17:56 00:16 Jupiter 1.97848889511335 1.97848658772322 1.97849120250652 3.27881802481533 3.14553904417528 2500319.247349301 16.0753512749528 304.86174112852 176.064875190145 -78.752256310449 413786.0210033 T 12 CATAB v2.0e-lin.ifort 2019-Jul-14 16:18:03 2019-Jul-14 16:18
2191-Dec-23 09:34 00:23 Jupiter 1.96777616977821 1.96777396662044 1.96777837330589 4.02653983587623 3.91817941098732 2521662.898707915 22.9211249814718 1506.92623076619 41.0188777622253 -88.0468535251456 1166086.21371801 T 12 CATAB v2.0e-lin.ifort 2019-Jul-14 16:18:03 2019-Jul-14 16:18
Ephemeris | Orbit Diagram | Orbital Elements | Mission Design | Physical Parameters | Discovery Circumstances | Close-Approach Data ]
ABOUT SSD CREDITS/AWARDS PRIVACY/COPYRIGHT GLOSSARY LINKS
FirstGov
(server date/time)  
NASA Home Page
Site Manager:   Ryan S. Park
Webmaster  Alan B. Chamberlin